Terug naar catalogus

QIANFAN-149

ActiefCommunicatiePO
NORAD 69108·PAYLOAD·🇨🇳 China

Gelanceerd May 17, 2026 vanaf Wenchang Space Launch Site

Loading…

Volgende Passages (komende 24 uur)

TLE

VersSource: Space-Track

Epoch: Sep 14, 2026, 14:34 UTC

1 69108U 26108E   26257.60745623  .00000105  00000-0  14339-3 0  9995
2 69108  89.0185  13.1343 0002240 110.1561 249.9831 13.51023050 16503

Volg QIANFAN-149 in realtime met AllMySat

Download on the App Store